,,PA_Meas_PMT16A,,PR_Meas_QMR101_102,,RH_Meas_QMH101,,SR_Meas_QMS101,,TA_Meas_QMH101,,GenWind,,GenWind,
time,status,PA,status,PR,status,RH,status,SR,status,TA,status,DirAvg,status,SpdAvg,
2011-03-03, 00:00:04,VALID,917.345,VALID,0,VALID,97.1147,VALID,0,VALID,19.2168,VALID,119,VALID,0.493359,
2011-03-03, 00:01:04,VALID,917.328,VALID,0,VALID,97.1299,VALID,0,VALID,19.2363,VALID,119,VALID,0.447266,
2011-03-03, 00:02:04,VALID,917.344,VALID,0,VALID,97.1299,VALID,0,VALID,19.2348,VALID,119,VALID,0.671875,
2011-03-03, 00:03:04,VALID,917.361,VALID,0,VALID,97.1452,VALID,0,VALID,19.2738,VALID,119,VALID,0.716016,
2011-03-03, 00:04:04,VALID,917.37,VALID,0,VALID,97.1452,VALID,0,VALID,19.2933,VALID,119,VALID,0.389844,
2011-03-03, 00:05:04,VALID,917.382,VALID,0,VALID,97.1528,VALID,0,VALID,19.2918,VALID,119,VALID,0.557422,
2011-03-03, 00:06:04,VALID,917.37,VALID,0,VALID,97.1528,VALID,0,VALID,19.3128,VALID,138,VALID,1.00078,
2011-03-03, 00:07:04,VALID,917.348,VALID,0,VALID,97.1376,VALID,0,VALID,19.3113,VALID,137,VALID,0.678516,
2011-03-03, 00:08:04,VALID,917.296,VALID,0,VALID,97.1604,VALID,0,VALID,19.2918,VALID,137,VALID,0.421094,
2011-03-03, 00:09:04,VALID,917.301,VALID,0,VALID,97.1604,VALID,0,VALID,19.3128,VALID,137,VALID,0.608594,
2011-03-03, 00:10:04,VALID,917.319,VALID,0,VALID,97.1757,VALID,0,VALID,19.3113,VALID,137,VALID,0.844922,
2011-03-03, 00:11:04,VALID,917.318,VALID,0,VALID,97.1681,VALID,0.107441,VALID,19.3113,VALID,137,VALID,0.565625,
2011-03-03, 00:12:04,VALID,917.322,VALID,0,VALID,97.1833,VALID,0,VALID,19.3323,VALID,137,VALID,0.772266,
2011-03-03, 00:13:04,VALID,917.305,VALID,0,VALID,97.1681,VALID,0,VALID,19.3323,VALID,137,VALID,0.690234,
2011-03-03, 00:14:04,VALID,917.311,VALID,0,VALID,97.1833,VALID,0.107441,VALID,19.3113,VALID,137,VALID,0.678516,
2011-03-03, 00:15:04,VALID,917.301,VALID,0,VALID,97.1986,VALID,0,VALID,19.3128,VALID,137,VALID,0.285937,
2011-03-03, 00:16:04,VALID,917.283,VALID,0,VALID,97.1757,VALID,0,VALID,19.3128,VALID,137,VALID,0.666406,
2011-03-03, 00:17:04,VALID,917.315,VALID,0,VALID,97.2138,VALID,0,VALID,19.2918,VALID,137,VALID,0.311719,
2011-03-03, 00:18:04,VALID,917.306,VALID,0,VALID,97.1986,VALID,0,VALID,19.2738,VALID,140,VALID,1.04336,
2011-03-03, 00:19:04,VALID,917.315,VALID,0,VALID,97.1757,VALID,0,VALID,19.2543,VALID,141,VALID,0.954297,
2011-03-03, 00:20:04,VALID,917.257,VALID,0,VALID,97.2138,VALID,0,VALID,19.2558,VALID,140,VALID,0.286719,
2011-03-03, 00:21:04,VALID,917.255,VALID,0,VALID,97.1833,VALID,0,VALID,19.1958,VALID,131,VALID,0.869141,
2011-03-03, 00:22:04,VALID,917.24,VALID,0,VALID,97.1909,VALID,0,VALID,19.1778,VALID,131,VALID,0.877344,
2011-03-03, 00:23:04,VALID,917.227,VALID,0,VALID,97.2062,VALID,0,VALID,19.1583,VALID,112,VALID,1.19961,
2011-03-03, 00:24:04,VALID,917.219,VALID,0,VALID,97.1986,VALID,0,VALID,19.1583,VALID,112,VALID,0.903125,
2011-03-03, 00:25:04,VALID,917.203,VALID,0,VALID,97.229,VALID,0,VALID,19.1193,VALID,112,VALID,0.923828,
2011-03-03, 00:26:04,VALID,917.246,VALID,0,VALID,97.2138,VALID,0,VALID,19.1193,VALID,112,VALID,0.710547,
2011-03-03, 00:27:04,VALID,917.226,VALID,0,VALID,97.2214,VALID,0,VALID,19.1193,VALID,112,VALID,1.22539,
2011-03-03, 00:28:04,VALID,917.196,VALID,0,VALID,97.2367,VALID,0,VALID,19.1193,VALID,112,VALID,0.750391,
2011-03-03, 00:29:04,VALID,917.189,VALID,0,VALID,97.229,VALID,0,VALID,19.0998,VALID,112,VALID,1.02461,
2011-03-03, 00:30:04,VALID,917.175,VALID,0,VALID,97.2367,VALID,0,VALID,19.0593,VALID,113,VALID,0.726563,
2011-03-03, 00:31:04,VALID,917.154,VALID,0,VALID,97.2214,VALID,0,VALID,19.0398,VALID,113,VALID,0.779297,
2011-03-03, 00:32:04,VALID,917.123,VALID,0,VALID,97.2443,VALID,0,VALID,19.0203,VALID,113,VALID,0.804297,
2011-03-03, 00:33:04,VALID,917.135,VALID,0,VALID,97.2443,VALID,0,VALID,19.0203,VALID,132,VALID,0.412891,
2011-03-03, 00:34:04,VALID,917.145,VALID,0,VALID,97.2595,VALID,0,VALID,19.0218,VALID,132,VALID,0.485938,
2011-03-03, 00:35:04,VALID,917.132,VALID,0,VALID,97.2443,VALID,0,VALID,19.0023,VALID,132,VALID,0.334766,
2011-03-03, 00:36:04,VALID,917.102,VALID,0,VALID,97.2595,VALID,0,VALID,18.9828,VALID,132,VALID,0.500391,
2011-03-03, 00:37:04,VALID,917.064,VALID,0,VALID,97.2595,VALID,0,VALID,19.0023,VALID,132,VALID,0.633984,
2011-03-03, 00:38:04,VALID,917.048,VALID,0,VALID,97.2672,VALID,0,VALID,19.0023,VALID,132,VALID,0.635547,
2011-03-03, 00:39:04,VALID,917.036,VALID,0,VALID,97.2748,VALID,0,VALID,19.0023,VALID,132,VALID,0.73125,
2011-03-03, 00:40:04,VALID,917.018,VALID,0,VALID,97.3053,VALID,0,VALID,18.9814,VALID,132,VALID,1.02383,
2011-03-03, 00:41:04,VALID,917.032,VALID,0,VALID,97.2824,VALID,0,VALID,19.0023,VALID,132,VALID,0.984375,
2011-03-03, 00:42:04,VALID,917.003,VALID,0,VALID,97.2824,VALID,0,VALID,19.0023,VALID,133,VALID,1.36367,
2011-03-03, 00:43:04,VALID,916.979,VALID,0,VALID,97.2977,VALID,0,VALID,19.0218,VALID,133,VALID,0.906641,
2011-03-03, 00:44:04,VALID,916.978,VALID,0,VALID,97.2824,VALID,0,VALID,19.0218,VALID,133,VALID,0.757031,
2011-03-03, 00:45:04,VALID,916.968,VALID,0,VALID,97.29,VALID,0,VALID,18.9828,VALID,133,VALID,0.587891,
2011-03-03, 00:46:04,VALID,916.983,VALID,0,VALID,97.3205,VALID,0,VALID,18.9424,VALID,157,VALID,0.942578,
2011-03-03, 00:47:04,VALID,916.969,VALID,0,VALID,97.2824,VALID,0,VALID,18.9048,VALID,157,VALID,0.59375,
2011-03-03, 00:48:04,VALID,916.954,VALID,0,VALID,97.2977,VALID,0,VALID,18.8853,VALID,157,VALID,0.786328,
2011-03-03, 00:49:04,VALID,916.939,VALID,0,VALID,97.3053,VALID,0,VALID,18.9048,VALID,157,VALID,0.373437,
2011-03-03, 00:50:04,VALID,916.925,VALID,0,VALID,97.3205,VALID,0,VALID,18.8839,VALID,157,VALID,0.469531,
2011-03-03, 00:51:04,VALID,916.905,VALID,0,VALID,97.3205,VALID,0,VALID,18.8658,VALID,157,VALID,0.584375,
2011-03-03, 00:52:04,VALID,916.885,VALID,0,VALID,97.3129,VALID,0,VALID,18.8268,VALID,157,VALID,0.358984,
2011-03-03, 00:53:04,VALID,916.855,VALID,0,VALID,97.3281,VALID,0,VALID,18.7864,VALID,157,VALID,0.413281,
2011-03-03, 00:54:04,VALID,916.883,VALID,0,VALID,97.3129,VALID,0,VALID,18.7474,VALID,157,VALID,0.397266,
2011-03-03, 00:55:04,VALID,916.848,VALID,0,VALID,97.3205,VALID,0,VALID,18.7488,VALID,157,VALID,0.548047,
2011-03-03, 00:56:04,VALID,916.836,VALID,0,VALID,97.3129,VALID,0,VALID,18.7293,VALID,157,VALID,0.607031,
2011-03-03, 00:57:04,VALID,916.807,VALID,0,VALID,97.3358,VALID,0,VALID,18.7293,VALID,157,VALID,0.842969,
2011-03-03, 00:58:04,VALID,916.808,VALID,0,VALID,97.351,VALID,0,VALID,18.7488,VALID,157,VALID,0.858594,
2011-03-03, 00:59:04,VALID,916.785,VALID,0,VALID,97.3663,VALID,0,VALID,18.7488,VALID,157,VALID,0.730078,
2011-03-03, 01:00:04,VALID,916.746,VALID,0,VALID,97.3663,VALID,0,VALID,18.7098,VALID,157,VALID,0.986328,
2011-03-03, 01:01:04,VALID,916.733,VALID,0,VALID,97.3663,VALID,0,VALID,18.7293,VALID,157,VALID,0.967188,
2011-03-03, 01:02:04,VALID,916.72,VALID,0,VALID,97.351,VALID,0,VALID,18.7098,VALID,157,VALID,0.957422,
2011-03-03, 01:03:04,VALID,916.751,VALID,0,VALID,97.3891,VALID,0,VALID,18.6889,VALID,124,VALID,1.02461,
2011-03-03, 01:04:04,VALID,916.741,VALID,0,VALID,97.3739,VALID,0,VALID,18.6485,VALID,124,VALID,0.946094,
2011-03-03, 01:05:04,VALID,916.693,VALID,0,VALID,97.3663,VALID,0,VALID,18.6304,VALID,140,VALID,1.04961,
2011-03-03, 01:06:04,VALID,916.691,VALID,0,VALID,97.4044,VALID,0,VALID,18.6485,VALID,139,VALID,0.939062,
2011-03-03, 01:07:04,VALID,916.702,VALID,0,VALID,97.3891,VALID,0,VALID,18.6499,VALID,134,VALID,0.824219,
2011-03-03, 01:08:04,VALID,916.695,VALID,0,VALID,97.4044,VALID,0,VALID,18.6499,VALID,134,VALID,1.3332,
2011-03-03, 01:09:04,VALID,916.666,VALID,0,VALID,97.3891,VALID,0,VALID,18.6694,VALID,134,VALID,1.11445,
2011-03-03, 01:10:04,VALID,916.69,VALID,0,VALID,97.4044,VALID,0,VALID,18.668,VALID,134,VALID,0.829687,
2011-03-03, 01:11:04,VALID,916.646,VALID,0,VALID,97.4196,VALID,0,VALID,18.6889,VALID,134,VALID,1.03164,
2011-03-03, 01:12:04,VALID,916.633,VALID,0,VALID,97.3968,VALID,0,VALID,18.6485,VALID,134,VALID,0.498437,
2011-03-03, 01:13:04,VALID,916.659,VALID,0,VALID,97.4044,VALID,0,VALID,18.6889,VALID,134,VALID,1.07031,
2011-03-03, 01:14:04,VALID,916.621,VALID,0,VALID,97.4196,VALID,0,VALID,18.6875,VALID,134,VALID,0.677344,
2011-03-03, 01:15:04,VALID,916.626,VALID,0,VALID,97.4044,VALID,0,VALID,18.7279,VALID,134,VALID,0.75,
2011-03-03, 01:16:04,VALID,916.602,VALID,0,VALID,97.4273,VALID,0,VALID,18.7279,VALID,134,VALID,0.860937,
2011-03-03, 01:17:04,VALID,916.645,VALID,0,VALID,97.4273,VALID,0,VALID,18.7474,VALID,134,VALID,0.528516,
2011-03-03, 01:18:04,VALID,916.649,VALID,0,VALID,97.3968,VALID,0,VALID,18.7474,VALID,134,VALID,0.350781,
2011-03-03, 01:19:04,VALID,916.656,VALID,0,VALID,97.4425,VALID,0,VALID,18.7669,VALID,158,VALID,0.825781,
2011-03-03, 01:20:04,VALID,916.684,VALID,0,VALID,97.4273,VALID,0,VALID,18.7669,VALID,139,VALID,0.945313,
2011-03-03, 01:21:04,VALID,916.672,VALID,0,VALID,97.4196,VALID,0,VALID,18.7864,VALID,139,VALID,0.858594,
2011-03-03, 01:22:04,VALID,916.674,VALID,0,VALID,97.4273,VALID,0,VALID,18.7864,VALID,139,VALID,0.912109,
2011-03-03, 01:23:04,VALID,916.689,VALID,0,VALID,97.4425,VALID,0,VALID,18.7864,VALID,139,VALID,0.648047,
2011-03-03, 01:24:04,VALID,916.677,VALID,0,VALID,97.4273,VALID,0,VALID,18.7669,VALID,139,VALID,0.898438,
2011-03-03, 01:25:04,VALID,916.695,VALID,0,VALID,97.4349,VALID,0,VALID,18.7669,VALID,139,VALID,0.555469,
2011-03-03, 01:26:04,VALID,916.67,VALID,0,VALID,97.4425,VALID,0,VALID,18.7474,VALID,139,VALID,0.883984,
2011-03-03, 01:27:04,VALID,916.682,VALID,0,VALID,97.4273,VALID,0.107441,VALID,18.7474,VALID,139,VALID,0.621875,
2011-03-03, 01:28:04,VALID,916.69,VALID,0,VALID,97.4273,VALID,0,VALID,18.7474,VALID,139,VALID,0.672266,
2011-03-03, 01:29:04,VALID,916.647,VALID,0,VALID,97.4501,VALID,0,VALID,18.7279,VALID,140,VALID,0.753906,
2011-03-03, 01:30:04,VALID,916.642,VALID,0,VALID,97.4501,VALID,0,VALID,18.7084,VALID,141,VALID,0.774609,
2011-03-03, 01:31:04,VALID,916.584,VALID,0,VALID,97.4501,VALID,0,VALID,18.6694,VALID,154,VALID,0.774219,
2011-03-03, 01:32:04,VALID,916.544,VALID,0,VALID,97.4349,VALID,0,VALID,18.6499,VALID,154,VALID,0.586328,
2011-03-03, 01:33:04,VALID,916.493,VALID,0,VALID,97.4349,VALID,0,VALID,18.6499,VALID,154,VALID,0.882813,
2011-03-03, 01:34:04,VALID,916.487,VALID,0,VALID,97.4501,VALID,0,VALID,18.6109,VALID,154,VALID,0.898828,
2011-03-03, 01:35:04,VALID,916.49,VALID,0,VALID,97.4501,VALID,0,VALID,18.5705,VALID,154,VALID,0.733203,
2011-03-03, 01:36:04,VALID,916.494,VALID,0,VALID,97.4501,VALID,0.107441,VALID,18.572,VALID,139,VALID,0.841797,
2011-03-03, 01:37:04,VALID,916.485,VALID,0,VALID,97.4577,VALID,0,VALID,18.5316,VALID,139,VALID,0.571484,
2011-03-03, 01:38:04,VALID,916.471,VALID,0,VALID,97.4501,VALID,0,VALID,18.5316,VALID,139,VALID,0.472266,
2011-03-03, 01:39:04,VALID,916.501,VALID,0,VALID,97.473,VALID,0,VALID,18.5511,VALID,140,VALID,0.746875,
2011-03-03, 01:40:04,VALID,916.465,VALID,0,VALID,97.4577,VALID,0.107441,VALID,18.572,VALID,146,VALID,0.752734,
2011-03-03, 01:41:04,VALID,916.458,VALID,0,VALID,97.473,VALID,0,VALID,18.5316,VALID,146,VALID,0.783594,
2011-03-03, 01:42:04,VALID,916.467,VALID,0,VALID,97.4501,VALID,0,VALID,18.533,VALID,146,VALID,0.846094,
2011-03-03, 01:43:04,VALID,916.448,VALID,0,VALID,97.4882,VALID,0,VALID,18.533,VALID,146,VALID,1.26797,
2011-03-03, 01:44:04,VALID,916.425,VALID,0,VALID,97.4654,VALID,0,VALID,18.5135,VALID,146,VALID,1.16719,
2011-03-03, 01:45:04,VALID,916.396,VALID,0,VALID,97.473,VALID,0,VALID,18.4745,VALID,146,VALID,0.775781,
2011-03-03, 01:46:04,VALID,916.364,VALID,0,VALID,97.4806,VALID,0,VALID,18.4745,VALID,146,VALID,1.08164,
2011-03-03, 01:47:04,VALID,916.382,VALID,0,VALID,97.5035,VALID,0,VALID,18.4355,VALID,146,VALID,1.18984,
2011-03-03, 01:48:04,VALID,916.352,VALID,0,VALID,97.4959,VALID,0.107441,VALID,18.3951,VALID,146,VALID,1.12578,
2011-03-03, 01:49:04,VALID,916.29,VALID,0,VALID,97.473,VALID,0,VALID,18.3965,VALID,146,VALID,0.520703,
2011-03-03, 01:50:04,VALID,916.28,VALID,0,VALID,97.4959,VALID,0,VALID,18.4174,VALID,146,VALID,0.819922,
2011-03-03, 01:51:04,VALID,916.249,VALID,0,VALID,97.5111,VALID,0,VALID,18.4369,VALID,146,VALID,0.919531,
2011-03-03, 01:52:04,VALID,916.254,VALID,0,VALID,97.5187,VALID,0,VALID,18.3979,VALID,146,VALID,0.485547,
2011-03-03, 01:53:04,VALID,916.202,VALID,0,VALID,97.4959,VALID,0,VALID,18.3979,VALID,146,VALID,0.746875,
2011-03-03, 01:54:04,VALID,916.2,VALID,0,VALID,97.4959,VALID,0,VALID,18.3965,VALID,146,VALID,0.445703,
2011-03-03, 01:55:04,VALID,916.187,VALID,0,VALID,97.5187,VALID,0,VALID,18.4174,VALID,146,VALID,0.624609,
2011-03-03, 01:56:04,VALID,916.184,VALID,0,VALID,97.5187,VALID,0,VALID,18.4174,VALID,146,VALID,0.732813,
2011-03-03, 01:57:04,VALID,916.182,VALID,0,VALID,97.4806,VALID,0,VALID,18.3784,VALID,146,VALID,0.578516,
2011-03-03, 01:58:04,VALID,916.156,VALID,0,VALID,97.5035,VALID,0,VALID,18.3199,VALID,146,VALID,0.665234,
2011-03-03, 01:59:04,VALID,916.141,VALID,0,VALID,97.5035,VALID,0,VALID,18.3004,VALID,146,VALID,0.774219,
2011-03-03, 02:00:04,VALID,916.157,VALID,0,VALID,97.534,VALID,0,VALID,18.3589,VALID,146,VALID,0.862891,
2011-03-03, 02:01:04,VALID,916.15,VALID,0,VALID,97.5264,VALID,0,VALID,18.3589,VALID,146,VALID,0.705859,
2011-03-03, 02:02:04,VALID,916.183,VALID,0,VALID,97.5187,VALID,0,VALID,18.3575,VALID,146,VALID,0.423438,
2011-03-03, 02:03:04,VALID,916.179,VALID,0,VALID,97.5416,VALID,0,VALID,18.377,VALID,146,VALID,0.499219,
2011-03-03, 02:04:04,VALID,916.184,VALID,0,VALID,97.5492,VALID,0,VALID,18.3575,VALID,146,VALID,0.561719,
2011-03-03, 02:05:04,VALID,916.176,VALID,0,VALID,97.534,VALID,0,VALID,18.3575,VALID,146,VALID,0.846875,
2011-03-03, 02:06:04,VALID,916.159,VALID,0,VALID,97.5187,VALID,0,VALID,18.377,VALID,146,VALID,0.760156,
2011-03-03, 02:07:04,VALID,916.177,VALID,0,VALID,97.5264,VALID,0,VALID,18.3965,VALID,146,VALID,0.357422,
2011-03-03, 02:08:04,VALID,916.108,VALID,0,VALID,97.5492,VALID,0,VALID,18.416,VALID,146,VALID,0.513672,
2011-03-03, 02:09:04,VALID,916.123,VALID,0,VALID,97.5416,VALID,0,VALID,18.3965,VALID,146,VALID,0.840625,
2011-03-03, 02:10:04,VALID,916.104,VALID,0,VALID,97.5416,VALID,0.107441,VALID,18.416,VALID,152,VALID,0.768359,
2011-03-03, 02:11:04,VALID,916.12,VALID,0,VALID,97.534,VALID,0,VALID,18.416,VALID,152,VALID,1.02031,
2011-03-03, 02:12:04,VALID,916.102,VALID,0,VALID,97.534,VALID,0,VALID,18.4355,VALID,170,VALID,0.659375,
2011-03-03, 02:13:04,VALID,916.126,VALID,0,VALID,97.5645,VALID,0,VALID,18.4355,VALID,170,VALID,0.752734,
2011-03-03, 02:14:04,VALID,916.103,VALID,0,VALID,97.5492,VALID,0,VALID,18.455,VALID,164,VALID,0.711719,
2011-03-03, 02:15:04,VALID,916.11,VALID,0,VALID,97.5492,VALID,0,VALID,18.4355,VALID,163,VALID,0.399609,
2011-03-03, 02:16:04,VALID,916.118,VALID,0,VALID,97.5492,VALID,0,VALID,18.416,VALID,163,VALID,0.698828,
2011-03-03, 02:17:04,VALID,916.082,VALID,0,VALID,97.5492,VALID,0.107441,VALID,18.4146,VALID,163,VALID,1.34766,
2011-03-03, 02:18:04,VALID,916.087,VALID,0,VALID,97.5416,VALID,0,VALID,18.3979,VALID,138,VALID,1.03828,
2011-03-03, 02:19:04,VALID,916.092,VALID,0,VALID,97.5416,VALID,0,VALID,18.4174,VALID,139,VALID,1.39766,
2011-03-03, 02:20:04,VALID,916.076,VALID,0,VALID,97.5416,VALID,0,VALID,18.4174,VALID,151,VALID,0.805078,
2011-03-03, 02:21:04,VALID,916.071,VALID,0,VALID,97.5492,VALID,0,VALID,18.4188,VALID,142,VALID,1.3957,
2011-03-03, 02:22:04,VALID,916.061,VALID,0,VALID,97.5492,VALID,0,VALID,18.3979,VALID,156,VALID,0.995313,
2011-03-03, 02:23:04,VALID,916.033,VALID,0,VALID,97.5569,VALID,0,VALID,18.3589,VALID,171,VALID,1.0625,
2011-03-03, 02:24:04,VALID,916.029,VALID,0,VALID,97.5645,VALID,0,VALID,18.3784,VALID,130,VALID,1.64531,
2011-03-03, 02:25:04,VALID,915.998,VALID,0,VALID,97.5645,VALID,0,VALID,18.3394,VALID,137,VALID,0.633203,
2011-03-03, 02:26:04,VALID,916.029,VALID,0,VALID,97.5645,VALID,0,VALID,18.3394,VALID,137,VALID,0.788672,
2011-03-03, 02:27:04,VALID,916.003,VALID,0,VALID,97.5569,VALID,0,VALID,18.3018,VALID,162,VALID,1.3168,
2011-03-03, 02:28:04,VALID,915.986,VALID,0,VALID,97.5569,VALID,0,VALID,18.2809,VALID,137,VALID,1.12695,
2011-03-03, 02:29:04,VALID,915.921,VALID,0,VALID,97.5569,VALID,0,VALID,18.2615,VALID,136,VALID,1.20039,
2011-03-03, 02:30:04,VALID,915.935,VALID,0,VALID,97.5721,VALID,0,VALID,18.2433,VALID,154,VALID,1.0457,
2011-03-03, 02:31:04,VALID,915.887,VALID,0,VALID,97.5797,VALID,0,VALID,18.203,VALID,147,VALID,0.79375,
2011-03-03, 02:32:04,VALID,915.909,VALID,0,VALID,97.5569,VALID,0,VALID,18.1835,VALID,125,VALID,0.853125,
2011-03-03, 02:33:04,VALID,915.87,VALID,0,VALID,97.5645,VALID,0,VALID,18.2016,VALID,164,VALID,1.16406,
2011-03-03, 02:34:04,VALID,915.898,VALID,0,VALID,97.5721,VALID,0,VALID,18.2016,VALID,148,VALID,1.16367,
2011-03-03, 02:35:04,VALID,915.879,VALID,0,VALID,97.5645,VALID,0,VALID,18.2016,VALID,151,VALID,1.76016,
2011-03-03, 02:36:04,VALID,915.896,VALID,0,VALID,97.5873,VALID,0,VALID,18.1821,VALID,160,VALID,0.788281,
2011-03-03, 02:37:04,VALID,915.882,VALID,0,VALID,97.5873,VALID,0,VALID,18.2016,VALID,158,VALID,1.42852,
2011-03-03, 02:38:04,VALID,915.889,VALID,0,VALID,97.5873,VALID,0,VALID,18.2016,VALID,151,VALID,1.64297,
2011-03-03, 02:39:04,VALID,915.894,VALID,0,VALID,97.5873,VALID,0,VALID,18.2225,VALID,147,VALID,0.981641,
2011-03-03, 02:40:04,VALID,915.9,VALID,0,VALID,97.595,VALID,0,VALID,18.1821,VALID,151,VALID,1.59961,
2011-03-03, 02:41:04,VALID,915.848,VALID,0,VALID,97.5873,VALID,0,VALID,18.2225,VALID,135,VALID,1.12695,
2011-03-03, 02:42:04,VALID,915.848,VALID,0,VALID,97.5873,VALID,0,VALID,18.1626,VALID,141,VALID,0.699609,
2011-03-03, 02:43:04,VALID,915.821,VALID,0,VALID,97.595,VALID,0,VALID,18.203,VALID,157,VALID,1.10352,
2011-03-03, 02:44:04,VALID,915.816,VALID,0,VALID,97.5873,VALID,0,VALID,18.1626,VALID,157,VALID,0.976172,
2011-03-03, 02:45:04,VALID,915.762,VALID,0,VALID,97.6102,VALID,0,VALID,18.1236,VALID,131,VALID,1.15937,
2011-03-03, 02:46:04,VALID,915.757,VALID,0,VALID,97.595,VALID,0,VALID,18.0846,VALID,134,VALID,0.683594,
2011-03-03, 02:47:04,VALID,915.79,VALID,0,VALID,97.595,VALID,0,VALID,18.0651,VALID,135,VALID,1.09063,
2011-03-03, 02:48:04,VALID,915.794,VALID,0,VALID,97.595,VALID,0,VALID,18.047,VALID,132,VALID,0.5625,
2011-03-03, 02:49:04,VALID,915.797,VALID,0,VALID,97.6026,VALID,0,VALID,17.9872,VALID,133,VALID,0.703125,
2011-03-03, 02:50:04,VALID,915.781,VALID,0,VALID,97.6026,VALID,0,VALID,17.9677,VALID,133,VALID,0.735156,
2011-03-03, 02:51:04,VALID,915.781,VALID,0,VALID,97.5873,VALID,0,VALID,17.9691,VALID,138,VALID,1.01289,
2011-03-03, 02:52:04,VALID,915.784,VALID,0,VALID,97.6102,VALID,0,VALID,17.9677,VALID,141,VALID,0.748438,
2011-03-03, 02:53:04,VALID,915.761,VALID,0,VALID,97.6026,VALID,0,VALID,17.9677,VALID,162,VALID,1.00586,
2011-03-03, 02:54:04,VALID,915.753,VALID,0,VALID,97.595,VALID,0,VALID,17.9886,VALID,162,VALID,0.915234,
2011-03-03, 02:55:04,VALID,915.77,VALID,0,VALID,97.6255,VALID,0,VALID,17.9872,VALID,156,VALID,1.15352,
2011-03-03, 02:56:04,VALID,915.79,VALID,0,VALID,97.6255,VALID,0,VALID,18.047,VALID,156,VALID,0.799609,
2011-03-03, 02:57:04,VALID,915.793,VALID,0,VALID,97.6331,VALID,0,VALID,18.0275,VALID,156,VALID,0.528125,
2011-03-03, 02:58:04,VALID,915.826,VALID,0,VALID,97.6331,VALID,0,VALID,18.008,VALID,156,VALID,1.03398,
2011-03-03, 02:59:04,VALID,915.806,VALID,0,VALID,97.6255,VALID,0,VALID,18.008,VALID,144,VALID,1.22187,
2011-03-03, 03:00:04,VALID,915.804,VALID,0,VALID,97.6102,VALID,0,VALID,18.008,VALID,148,VALID,0.759375,
2011-03-03, 03:01:04,VALID,915.813,VALID,0,VALID,97.6102,VALID,0,VALID,17.9691,VALID,148,VALID,0.539453,
2011-03-03, 03:02:04,VALID,915.805,VALID,0,VALID,97.6102,VALID,0,VALID,17.8702,VALID,148,VALID,0.948828,
2011-03-03, 03:03:04,VALID,915.768,VALID,0,VALID,97.6102,VALID,0,VALID,17.8911,VALID,148,VALID,0.771094,
2011-03-03, 03:04:04,VALID,915.762,VALID,0,VALID,97.6102,VALID,0,VALID,17.8716,VALID,148,VALID,0.973047,
2011-03-03, 03:05:04,VALID,915.759,VALID,0,VALID,97.6331,VALID,0,VALID,17.8716,VALID,148,VALID,0.776953,
2011-03-03, 03:06:04,VALID,915.748,VALID,0,VALID,97.6255,VALID,0,VALID,17.8521,VALID,148,VALID,0.769922,
2011-03-03, 03:07:04,VALID,915.788,VALID,0,VALID,97.6483,VALID,0,VALID,17.8313,VALID,119,VALID,0.939453,
2011-03-03, 03:08:04,VALID,915.749,VALID,0,VALID,97.6255,VALID,0,VALID,17.8326,VALID,119,VALID,0.996484,
2011-03-03, 03:09:04,VALID,915.778,VALID,0,VALID,97.6407,VALID,0,VALID,17.7936,VALID,119,VALID,0.890234,
2011-03-03, 03:10:04,VALID,915.743,VALID,0,VALID,97.6407,VALID,0,VALID,17.7741,VALID,119,VALID,1.17773,
2011-03-03, 03:11:04,VALID,915.738,VALID,0,VALID,97.6255,VALID,0,VALID,17.7547,VALID,119,VALID,0.921484,
2011-03-03, 03:12:04,VALID,915.736,VALID,0,VALID,97.6178,VALID,0,VALID,17.7547,VALID,119,VALID,1.13242,
2011-03-03, 03:13:04,VALID,915.734,VALID,0,VALID,97.6407,VALID,0,VALID,17.6962,VALID,119,VALID,0.878125,
2011-03-03, 03:14:04,VALID,915.753,VALID,0,VALID,97.6331,VALID,0,VALID,17.6767,VALID,119,VALID,0.854297,
2011-03-03, 03:15:04,VALID,915.762,VALID,0,VALID,97.6483,VALID,0,VALID,17.6767,VALID,119,VALID,0.838281,
2011-03-03, 03:16:04,VALID,915.729,VALID,0,VALID,97.6331,VALID,0,VALID,17.6767,VALID,119,VALID,0.918359,
2011-03-03, 03:17:04,VALID,915.762,VALID,0,VALID,97.6331,VALID,0,VALID,17.6767,VALID,119,VALID,1.05391,
2011-03-03, 03:18:04,VALID,915.744,VALID,0,VALID,97.6636,VALID,0,VALID,17.6767,VALID,119,VALID,1.10156,
2011-03-03, 03:19:04,VALID,915.745,VALID,0,VALID,97.6636,VALID,0,VALID,17.6962,VALID,124,VALID,1.41758,
2011-03-03, 03:20:04,VALID,915.716,VALID,0,VALID,97.6407,VALID,0,VALID,17.6754,VALID,124,VALID,0.797656,
2011-03-03, 03:21:04,VALID,915.685,VALID,0,VALID,97.6712,VALID,0,VALID,17.6572,VALID,124,VALID,0.894141,
2011-03-03, 03:22:04,VALID,915.702,VALID,0,VALID,97.6483,VALID,0,VALID,17.6767,VALID,124,VALID,0.981641,
2011-03-03, 03:23:04,VALID,915.677,VALID,0,VALID,97.656,VALID,0,VALID,17.6767,VALID,133,VALID,1.16016,
2011-03-03, 03:24:04,VALID,915.662,VALID,0,VALID,97.6407,VALID,0,VALID,17.6754,VALID,141,VALID,0.733984,
2011-03-03, 03:25:04,VALID,915.664,VALID,0,VALID,97.6407,VALID,0,VALID,17.6364,VALID,138,VALID,1.22891,
2011-03-03, 03:26:04,VALID,915.634,VALID,0,VALID,97.6712,VALID,0,VALID,17.6572,VALID,132,VALID,1.27266,
2011-03-03, 03:27:04,VALID,915.629,VALID,0,VALID,97.656,VALID,0,VALID,17.6767,VALID,136,VALID,1.51953,
2011-03-03, 03:28:04,VALID,915.61,VALID,0,VALID,97.656,VALID,0,VALID,17.6169,VALID,136,VALID,0.971484,
2011-03-03, 03:29:04,VALID,915.625,VALID,0,VALID,97.6483,VALID,0,VALID,17.6169,VALID,128,VALID,1.00117,
2011-03-03, 03:30:04,VALID,915.615,VALID,0,VALID,97.6636,VALID,0,VALID,17.6182,VALID,121,VALID,0.694141,
2011-03-03, 03:31:04,VALID,915.619,VALID,0,VALID,97.6636,VALID,0,VALID,17.6182,VALID,146,VALID,0.410156,
2011-03-03, 03:32:04,VALID,915.58,VALID,0,VALID,97.656,VALID,0,VALID,17.6182,VALID,144,VALID,0.929297,
2011-03-03, 03:33:04,VALID,915.615,VALID,0,VALID,97.6712,VALID,0,VALID,17.6377,VALID,154,VALID,1.13125,
2011-03-03, 03:34:04,VALID,915.59,VALID,0,VALID,97.6788,VALID,0,VALID,17.7157,VALID,130,VALID,0.847266,
2011-03-03, 03:35:04,VALID,915.6,VALID,0,VALID,97.6941,VALID,0,VALID,17.7157,VALID,144,VALID,1.10469,
2011-03-03, 03:36:04,VALID,915.607,VALID,0,VALID,97.6712,VALID,0,VALID,17.7547,VALID,164,VALID,0.887109,
2011-03-03, 03:37:04,VALID,915.609,VALID,0,VALID,97.6865,VALID,0,VALID,17.7741,VALID,157,VALID,1.45078,
2011-03-03, 03:38:04,VALID,915.575,VALID,0,VALID,97.6788,VALID,0,VALID,17.7741,VALID,151,VALID,1.27734,
2011-03-03, 03:39:04,VALID,915.587,VALID,0,VALID,97.6636,VALID,0,VALID,17.7533,VALID,146,VALID,0.929297,
2011-03-03, 03:40:04,VALID,915.579,VALID,0,VALID,97.656,VALID,0,VALID,17.7365,VALID,133,VALID,1.24766,
2011-03-03, 03:41:04,VALID,915.586,VALID,0,VALID,97.656,VALID,0,VALID,17.7352,VALID,143,VALID,0.988281,
2011-03-03, 03:42:04,VALID,915.559,VALID,0,VALID,97.6712,VALID,0,VALID,17.6948,VALID,140,VALID,1.11289,
2011-03-03, 03:43:04,VALID,915.597,VALID,0,VALID,97.6712,VALID,0,VALID,17.7352,VALID,137,VALID,1.45391,
2011-03-03, 03:44:04,VALID,915.552,VALID,0,VALID,97.6712,VALID,0,VALID,17.7143,VALID,149,VALID,0.958203,